Temp
53 51 52 52 52 52 53 57 60 61 60 63 64 62 61 56 56 55 55 50 47 50
51 52 52 53 54 52 54 58 60 60 61 62 64 63 60 59 55 55 55 53 51 50
53 53 54 54 52 53 53 54 56 58 60 60 62 62 60 59 56 54 53 53 50 47
54 55 53 54 55 53 53 53 56 58 60 59 60 60 61 59 57 53 53 54 51 49
55 55 51 54 54 53 52 53 54 56 58 60 61 61 60 58 58 53 53 51 51 50
52 51 53 54 52 54 53 51 51 53 54 56 57 58 59 59 58 54 55 53 52 51
52 52 53 53 52 52 54 50 50 51 53 54 56 57 58 59 58 56 55 54 53 51
50 52 50 48 52 53 52 53 53 50 50 51 54 57 59 59 57 55 54 51 52 50
52 51 47 51 50 48 51 52 51 50 49 49 53 55 57 60 57 54 52 49 49 51
51 49 50 50 48 48 48 47 48 48 48 48 50 53 55 60 56 53 52 51 49 50
49 50 47 48 48 43 44 45 46 47 47 47 49 52 55 60 53 54 52 51 49 51
50 47 47 47 45 44 45 46 46 47 48 46 47 52 54 57 52 51 50 49 50 50
48 46 45 47 44 46 47 47 47 48 48 48 46 51 56 55 51 49 48 47 48 54
48 45 46 43 47 47 46 46 45 46 48 46 47 49 54 56 50 49 48 48 47 49
MSLP
1015.08 1014.66 1014.35 1014.09 1013.73 1013.46 1013.17 1012.55 1012.15 1011.54 1011.03 1010.68 1010.60 1010.48 1010.60 1011.14 1011.63 1012.30 1012.87 1013.62 1014.19 1014.65
1014.74 1014.41 1014.09 1013.53 1012.97 1012.70 1012.35 1012.12 1011.63 1011.15 1010.40 1009.93 1009.70 1009.72 1009.83 1009.97 1010.63 1011.20 1011.79 1012.47 1013.18 1013.75
1013.99 1013.53 1013.05 1012.75 1012.54 1012.17 1011.78 1011.44 1011.14 1010.62 1009.74 1009.07 1008.81 1008.90 1008.96 1009.11 1009.55 1010.34 1010.92 1011.50 1012.34 1013.14
1014.02 1013.49 1012.90 1012.59 1012.04 1011.59 1011.06 1010.82 1010.71 1010.04 1009.28 1008.32 1007.94 1008.08 1008.26 1008.20 1008.58 1009.30 1009.90 1010.56 1011.30 1012.16
1013.48 1012.98 1012.45 1011.86 1011.37 1011.07 1010.70 1010.31 1010.04 1009.57 1008.98 1007.87 1007.34 1007.34 1007.54 1007.64 1007.63 1008.31 1009.06 1009.73 1010.48 1011.31
1012.77 1012.44 1011.73 1011.12 1010.58 1010.18 1009.85 1009.49 1009.25 1009.13 1008.69 1008.07 1007.41 1007.21 1007.16 1007.03 1007.13 1007.48 1007.82 1008.36 1009.38 1010.25
1011.83 1011.53 1010.99 1010.32 1009.88 1009.45 1009.03 1008.64 1008.34 1008.13 1007.93 1007.59 1007.09 1006.78 1006.60 1006.21 1006.17 1006.44 1006.78 1007.40 1008.23 1009.16
1011.12 1010.51 1010.04 1009.70 1009.12 1008.54 1008.23 1007.94 1007.60 1007.36 1007.05 1006.92 1006.73 1005.84 1005.15 1004.92 1005.27 1005.76 1006.03 1006.79 1007.50 1008.31
1010.39 1009.88 1009.40 1008.75 1008.34 1007.89 1007.56 1007.19 1007.09 1006.74 1006.30 1005.77 1005.42 1004.37 1004.14 1003.45 1004.19 1004.72 1005.16 1006.00 1006.98 1007.62
1009.50 1009.15 1008.66 1008.11 1007.83 1007.42 1007.05 1006.77 1006.42 1005.94 1005.63 1005.02 1004.32 1003.65 1003.00 1002.56 1003.12 1003.97 1004.44 1005.16 1006.27 1007.06
1008.57 1008.10 1007.86 1007.54 1007.26 1006.70 1006.36 1005.96 1005.46 1004.99 1004.51 1003.97 1003.27 1002.61 1002.05 1001.18 1002.32 1003.33 1003.96 1004.45 1005.43 1006.26
1007.53 1007.27 1006.98 1006.59 1006.35 1005.88 1005.51 1004.92 1004.53 1004.04 1003.16 1003.03 1002.11 1001.63 1000.67 1000.55 1001.95 1003.34 1003.69 1004.14 1004.95 1005.73
1006.51 1006.39 1006.17 1005.68 1005.37 1004.99 1004.50 1003.82 1003.53 1002.94 1002.17 1001.75 1001.43 1000.66 999.76 1000.36 1001.77 1003.09 1003.55 1004.00 1004.71 1005.24
1005.64 1005.50 1005.27 1004.86 1004.50 1004.01 1003.43 1002.99 1002.59 1002.17 1001.19 1000.74 1000.60 1000.03 999.64 1000.01 1001.48 1002.46 1003.16 1003.88 1004.80 1005.31
Wind_Speed
9 5 4 4 5 4 5 7 10 10 13 16 16 15 14 11 11 11 11 11 8 7
7 6 6 9 6 4 5 7 11 12 13 16 16 16 15 12 12 12 13 12 11 7
11 11 9 8 8 8 7 6 10 12 13 13 16 16 16 13 11 12 10 9 11 8
11 13 8 9 12 8 7 7 9 13 14 12 14 15 16 16 13 15 13 11 12 12
11 13 9 11 12 9 8 7 6 10 15 11 11 14 16 16 14 16 15 14 13 12
9 11 13 13 11 11 9 7 6 7 8 10 8 11 15 15 15 15 16 16 15 14
12 12 12 13 11 10 12 7 7 6 8 10 12 11 18 18 18 15 15 14 15 14
9 13 11 8 12 12 10 10 10 8 8 10 12 12 16 18 18 16 14 12 13 12
12 11 8 13 11 7 9 10 11 12 11 11 10 22 29 21 16 16 15 14 12 11
11 10 12 11 8 7 8 8 12 14 11 11 13 24 29 30 14 14 14 14 12 11
11 12 8 9 13 8 7 10 12 13 13 11 11 26 30 24 14 13 14 14 14 14
12 11 10 11 12 10 9 13 11 12 15 10 14 25 29 20 14 13 13 12 13 13
11 9 9 13 10 10 11 14 10 14 13 11 16 20 21 21 10 11 9 9 11 21
8 8 10 8 11 14 14 14 12 14 13 9 15 10 20 26 11 9 9 9 8 8
Wind_Direction
299 280 288 272 276 278 284 296 298 289 256 241 229 216 202 198 201 197 201 194 187 194
254 276 280 289 292 268 277 286 302 301 283 251 234 221 208 204 201 194 198 201 195 193
317 310 305 299 278 279 270 274 297 297 300 260 241 225 211 210 202 195 196 194 187 192
299 294 282 285 289 261 280 279 292 302 302 283 242 226 222 213 199 199 193 192 190 194
283 289 275 280 281 265 256 265 289 307 302 314 269 238 229 219 199 199 196 190 186 190
278 273 282 285 265 275 267 258 276 282 297 302 307 268 239 227 216 205 200 189 187 185
288 279 276 281 276 267 275 257 259 254 278 277 276 276 249 232 222 205 199 189 189 178
283 289 284 265 279 275 264 268 274 262 264 269 271 262 258 227 225 206 191 184 180 178
296 286 272 291 277 265 260 274 269 265 264 270 277 273 274 227 210 200 184 178 180 177
289 277 287 283 272 264 269 271 277 272 252 267 279 274 276 232 198 197 189 180 171 173
270 286 265 283 285 258 260 271 282 278 254 272 283 274 278 212 196 201 190 174 171 175
270 262 274 287 274 261 270 281 277 277 268 270 285 274 276 202 188 197 183 167 166 162
266 253 270 282 266 272 280 282 281 285 259 270 278 266 256 195 176 186 174 160 162 161
251 259 268 264 278 288 286 282 282 277 265 272 265 266 235 190 174 178 165 155 156 153